LEMUR-2-BRIANDAVIE

Last updated on Feb. 14, 2018, 4:20 p.m. UTC

1 43047U 17071L   18044.95161207  .00003127  00000-0  91806-4 0  9993
2 43047  51.6393 281.4232 0003279 193.0227 167.0673 15.38304990 10647
UTC
Height (km)
Latitude
Longitude
Inclination
Orbital Period
UTC large
Height (km)
Speed (km/s)
/
Latitude / Longitude
Inclination (degrees)
Orbital Period (minutes)
Azimuth
Elevation
Range (km)
Doppler Factor
iOS Compass Heading
iOS Angle